Location: Graswijk
(52.9667°N, 6.5500°E)
Time: 13:16:46
(UTC+00:00)

Cosmos 1763 Rocket - Pass Details

Date: 15 May 2026
Orbit: 728 x 773 km, 74.0° (Epoch: 11 June)

Event Time Altitude Azimuth Distance (km) Brightness Sun altitude
Exits shadow 21:10:54 13° 174° (S) 2,130 5.3 -12.0°
Maximum altitude 21:15:21 44° 106° (ESE) 1,064 3.9 -12.3°
Drops below altitude 10° 21:20:20 10° 36° (NE) 2,320 6.3 -12.7°
Sets 21:22:48 0° 30° (NNE) 3,246 7.2 -12.9°
